Location: Mahannah Oil Field
(37.4664°N, 96.6003°W)
Time: 08:35:27
(UTC+00:00)

Vanguard 2 - Visible Passes

Search period start: 18 June 2021 00:00
Search period end: 28 June 2021 00:00
Orbit: 552 x 2937 km, 32.9° (Epoch: 17 June)

Date Brightness Start Highest point End Pass type
(mag) Time Alt. Az. Time Alt. Az. Time Alt. Az.
18 Jun 8.2 03:23:52 10° W 03:32:12 57° S 03:35:17 26° ESE visible
18 Jun 9.8 05:35:31 10° W 05:36:41 14° WSW 05:36:41 14° WSW visible
19 Jun 8.2 03:41:49 10° W 03:49:50 51° SSW 03:51:59 34° SE visible
20 Jun 8.3 03:59:48 10° W 04:07:22 42° SSW 04:08:40 37° S visible
21 Jun 8.8 02:05:18 10° W 02:16:28 65° S 02:23:00 10° ESE visible
21 Jun 8.6 04:17:53 10° W 04:24:50 34° SSW 04:25:20 33° SSW visible
22 Jun 8.8 02:23:18 10° W 02:34:09 61° SSW 02:40:33 10° ESE visible
22 Jun 9.1 04:36:07 10° W 04:42:00 25° SW 04:42:00 25° SW visible
23 Jun 8.9 02:41:19 10° W 02:51:47 54° SSW 02:57:16 15° SE visible
23 Jun 9.7 04:54:41 10° W 04:58:39 18° SW 04:58:39 18° SW visible
24 Jun 9.0 02:59:22 10° W 03:09:19 46° SSW 03:13:55 19° SE visible
24 Jun 10.2 05:14:14 10° WSW 05:15:19 11° SW 05:15:19 11° SW visible
25 Jun 9.2 03:17:31 10° W 03:26:44 37° SSW 03:30:35 21° SSE visible
26 Jun 9.4 03:35:48 10° W 03:44:01 29° SW 03:47:15 20° S visible
27 Jun 9.7 03:54:25 10° W 04:01:10 21° SW 04:03:55 17° SSW visible
